EW6308 Weather Reports


Display with metric or nautical units.
time (UTC)temp
F
wind
direction
speed
MPH
gust
MPH
rain 1hr
in
rain 24hr
in
rain mn
in
humidity
%
barometer
mb
20260901075002 82 205 1.0 1.0 0.00 0.00 0.00 70 1018.0
20260901074457 82 165 2.0 3.0 0.00 0.00 0.00 69 1017.9
20260901073952 82 204 2.0 3.0 0.00 0.00 0.00 69 1018.0
20260901073449 82 196 1.0 6.0 0.00 0.00 0.00 68 1017.9
20260901072948 82 118 4.0 4.0 0.00 0.00 0.00 68 1017.8
20260901072443 83 204 3.0 4.0 0.00 0.00 0.00 68 1017.9
20260901071938 83 184 2.0 6.0 0.00 0.00 0.00 67 1017.8
20260901071438 83 188 4.0 4.0 0.00 0.00 0.00 67 1018.0
20260901070937 83 200 2.0 3.0 0.00 0.00 0.00 66 1017.7
20260901070433 83 183 2.0 3.0 0.00 0.00 0.00 66 1017.7
20260901065931 83 207 2.0 6.0 0.00 0.00 0.00 66 1017.7
20260901065427 83 206 4.0 7.0 0.00 0.00 0.00 66 1017.8
20260901064922 83 210 3.0 6.0 0.00 0.00 0.00 66 1018.0
20260901064418 83 157 3.0 4.0 0.00 0.00 0.00 66 1017.8
20260901063915 83 202 4.0 6.0 0.00 0.00 0.00 65 1017.9
20260901063412 83 177 3.0 6.0 0.00 0.00 0.00 65 1017.9
20260901062907 83 214 3.0 6.0 0.00 0.00 0.00 65 1017.7
20260901062403 84 189 2.0 4.0 0.00 0.00 0.00 65 1017.6
20260901061858 84 203 3.0 7.0 0.00 0.00 0.00 64 1017.6
20260901061354 84 211 2.0 6.0 0.00 0.00 0.00 64 1017.8
20260901060849 84 178 3.0 6.0 0.00 0.00 0.00 64 1017.6
20260901060345 84 205 2.0 4.0 0.00 0.00 0.00 64 1017.6
20260901055844 84 169 2.0 4.0 0.00 0.00 0.00 63 1017.6
20260901055341 84 168 4.0 4.0 0.00 0.00 0.00 63 1017.6
20260901054837 84 225 2.0 4.0 0.00 0.00 0.00 63 1017.7
20260901054334 84 196 2.0 3.0 0.00 0.00 0.00 63 1017.6
20260901053830 84 205 1.0 2.0 0.00 0.00 0.00 63 1017.6
20260901053325 84 192 3.0 4.0 0.00 0.00 0.00 62 1017.5
20260901052820 84 199 3.0 3.0 0.00 0.00 0.00 62 1017.3
20260901052316 84 172 2.0 4.0 0.00 0.00 0.00 62 1017.3
20260901051814 84 188 2.0 4.0 0.00 0.00 0.00 61 1017.2
20260901051309 85 216 4.0 4.0 0.00 0.00 0.00 61 1017.2
20260901050805 85 192 4.0 4.0 0.00 0.00 0.00 60 1017.3
20260901050300 85 216 2.0 4.0 0.00 0.00 0.00 59 1017.4
20260901045755 85 201 3.0 3.0 0.00 0.00 0.00 58 1017.3
20260901045250 85 221 4.0 7.0 0.00 0.00 0.00 57 1017.0
20260901044745 85 164 1.0 4.0 0.00 0.00 0.00 56 1017.2
20260901044242 85 202 2.0 4.0 0.00 0.00 0.00 55 1017.1
20260901043737 85 227 1.0 2.0 0.00 0.00 0.00 54 1017.0
20260901043232 85 155 1.0 6.0 0.00 0.00 0.00 53 1017.0
20260901042732 85 210 1.0 4.0 0.00 0.00 0.00 53 1017.1
20260901042226 85 216 1.0 3.0 0.00 0.00 0.00 52 1017.0
20260901041722 85 204 0.0 2.0 0.00 0.00 0.00 51 1016.9
20260901041222 84 225 2.0 3.0 0.00 0.00 0.00 50 1016.9
20260901040717 85 211 0.0 1.0 0.00 0.00 0.00 50 1017.0
20260901040216 84 193 1.0 2.0 0.00 0.00 0.00 50 1016.9
20260901035714 84 216 1.0 1.0 0.00 0.00 0.00 50 1016.8
20260901035214 85 221 0.0 1.0 0.00 0.00 0.00 51 1016.9
20260901034708 85 73 2.0 3.0 0.00 0.00 0.00 50 1016.9
20260901034203 85 227 0.0 0.0 0.00 0.00 0.00 49 1016.7
20260901033702 85 227 0.0 1.0 0.00 0.00 0.00 48 1016.8
20260901033201 85 221 1.0 1.0 0.00 0.00 0.00 48 1016.7
20260901032700 85 226 0.0 0.0 0.00 0.00 0.00 49 1016.6
20260901032154 86 224 0.0 0.0 0.00 0.00 0.00 48 1016.6
20260901031650 86 227 0.0 0.0 0.00 0.00 0.00 48 1016.4
20260901031146 86 223 0.0 1.0 0.00 0.00 0.00 47 1016.4
20260901030646 86 221 0.0 0.0 0.00 0.00 0.00 47 1016.6
20260901030141 86 224 0.0 1.0 0.00 0.00 0.00 47 1016.5
20260901025641 86 203 1.0 1.0 0.00 0.00 0.00 47 1016.2
20260901025136 86 230 0.0 1.0 0.00 0.00 0.00 46 1016.2
20260901024636 87 227 0.0 1.0 0.00 0.00 0.00 46 1016.1
20260901024135 87 230 0.0 0.0 0.00 0.00 0.00 46 1016.2
20260901023634 86 224 0.0 0.0 0.00 0.00 0.00 46 1016.3
20260901023129 86 224 0.0 1.0 0.00 0.00 0.00 46 1016.2
20260901022624 87 231 0.0 0.0 0.00 0.00 0.00 46 1016.0
20260901022119 86 231 0.0 1.0 0.00 0.00 0.00 46 1016.1
20260901021615 87 230 0.0 0.0 0.00 0.00 0.00 46 1015.9
20260901021110 87 230 0.0 0.0 0.00 0.00 0.00 46 1015.8
20260901020606 87 236 0.0 0.0 0.00 0.00 0.00 45 1015.8
20260901020101 87 244 0.0 0.0 0.00 0.00 0.00 44 1015.8
20260901015556 88 228 0.0 0.0 0.00 0.00 0.00 44 1015.7
20260901015056 88 227 0.0 0.0 0.00 0.00 0.00 44 1015.7
20260901014551 88 229 0.0 0.0 0.00 0.00 0.00 44 1015.7
20260901014047 88 228 0.0 0.0 0.00 0.00 0.00 43 1015.6
20260901013543 89 228 0.0 0.0 0.00 0.00 0.00 42 1015.6
20260901013039 89 227 0.0 0.0 0.00 0.00 0.00 42 1015.4
20260901012538 90 228 0.0 0.0 0.00 0.00 0.00 41 1015.3
20260901012033 90 231 0.0 0.0 0.00 0.00 0.00 40 1015.5
20260901011530 91 231 0.0 0.0 0.00 0.00 0.00 40 1015.4
20260901011027 91 231 0.0 0.0 0.00 0.00 0.00 39 1015.5
20260901010523 92 231 0.0 0.0 0.00 0.00 0.00 38 1015.3
20260901010022 93 231 0.0 0.0 0.00 0.00 0.00 37 1015.3
20260901005522 94 228 0.0 0.0 0.00 0.00 0.00 36 1015.4
20260901005018 94 204 1.0 1.0 0.00 0.00 0.00 35 1015.3
20260901004517 95 216 1.0 1.0 0.00 0.00 0.00 35 1015.5
20260901004012 95 211 0.0 3.0 0.00 0.00 0.00 34 1015.5
20260901003507 95 193 2.0 3.0 0.00 0.00 0.00 34 1015.3
20260901003005 96 140 1.0 3.0 0.00 0.00 0.00 35 1015.4
20260901002505 96 217 2.0 7.0 0.00 0.00 0.00 34 1015.5
20260901002000 96 186 2.0 4.0 0.00 0.00 0.00 35 1015.3
20260901001455 96 234 1.0 4.0 0.00 0.00 0.00 35 1015.3
20260901000951 96 219 5.0 7.0 0.00 0.00 0.00 34 1015.4
20260901000451 97 221 4.0 6.0 0.00 0.00 0.00 34 1015.4
20260831235949 97 188 3.0 6.0 0.00 0.00 0.00 33 1015.3
20260831235445 97 193 3.0 4.0 0.00 0.00 0.00 33 1015.3
20260831234940 97 161 2.0 4.0 0.00 0.00 0.00 34 1015.2
20260831234435 97 93 4.0 7.0 0.00 0.00 0.00 33 1015.4
20260831233930 98 207 3.0 6.0 0.00 0.00 0.00 33 1015.4
20260831233426 98 204 3.0 6.0 0.00 0.00 0.00 33 1015.4
20260831232921 98 241 5.0 9.0 0.00 0.00 0.00 33 1015.3
20260831232417 98 216 5.0 8.0 0.00 0.00 0.00 33 1015.5
20260831231912 98 193 4.0 6.0 0.00 0.00 0.00 33 1015.4
20260831231409 98 181 4.0 6.0 0.00 0.00 0.00 34 1015.2
20260831230905 98 195 2.0 2.0 0.00 0.00 0.00 34 1015.3
20260831230404 98 294 1.0 2.0 0.00 0.00 0.00 34 1015.4
20260831225859 98 172 8.0 11.0 0.00 0.00 0.00 34 1015.5
20260831225354 98 195 3.0 4.0 0.00 0.00 0.00 34 1015.4
20260831224849 99 220 2.0 7.0 0.00 0.00 0.00 34 1015.3
20260831224344 99 175 3.0 7.0 0.00 0.00 0.00 33 1015.6
20260831223839 99 65 3.0 6.0 0.00 0.00 0.00 33 1015.6
20260831223335 99 335 0.0 3.0 0.00 0.00 0.00 33 1015.5
20260831222832 100 169 2.0 7.0 0.00 0.00 0.00 33 1015.6
20260831222327 100 221 2.0 8.0 0.00 0.00 0.00 33 1015.6
20260831221827 99 165 4.0 6.0 0.00 0.00 0.00 33 1015.7
20260831221323 99 97 5.0 11.0 0.00 0.00 0.00 34 1015.5
20260831220817 100 222 1.0 7.0 0.00 0.00 0.00 33 1015.7
20260831220312 100 216 2.0 4.0 0.00 0.00 0.00 33 1015.7
20260831215808 100 89 2.0 8.0 0.00 0.00 0.00 33 1015.7
20260831215306 101 103 4.0 11.0 0.00 0.00 0.00 33 1015.9
20260831214800 101 175 2.0 4.0 0.00 0.00 0.00 33 1015.7
20260831214257 100 178 2.0 6.0 0.00 0.00 0.00 34 1015.9
20260831213753 100 146 3.0 4.0 0.00 0.00 0.00 33 1015.8
20260831213249 102 87 3.0 7.0 0.00 0.00 0.00 31 1015.7
20260831212743 101 128 3.0 6.0 0.00 0.00 0.00 32 1015.9
20260831212240 101 191 2.0 4.0 0.00 0.00 0.00 32 1016.0
20260831211738 101 160 3.0 6.0 0.00 0.00 0.00 31 1015.9
20260831211234 102 162 3.0 6.0 0.00 0.00 0.00 31 1016.0
20260831210729 101 254 3.0 4.0 0.00 0.00 0.00 30 1016.2
20260831210225 100 173 1.0 3.0 0.00 0.00 0.00 32 1016.1
20260831205724 100 70 5.0 9.0 0.00 0.00 0.00 32 1016.2
20260831205221 101 203 2.0 6.0 0.00 0.00 0.00 30 1016.5
20260831204720 101 221 1.0 8.0 0.00 0.00 0.00 32 1016.5
20260831204220 100 213 8.0 9.0 0.00 0.00 0.00 32 1016.8
20260831203719 99 190 1.0 7.0 0.00 0.00 0.00 33 1016.6
20260831203219 100 180 6.0 9.0 0.00 0.00 0.00 32 1016.9
20260831202717 100 165 6.0 9.0 0.00 0.00 0.00 33 1016.8
20260831202212 101 162 9.0 15.0 0.00 0.00 0.00 32 1017.0
20260831201707 101 203 2.0 6.0 0.00 0.00 0.00 32 1017.2
20260831201206 100 138 3.0 3.0 0.00 0.00 0.00 34 1017.3
20260831200702 100 195 4.0 8.0 0.00 0.00 0.00 33 1017.4
20260831200202 100 237 2.0 4.0 0.00 0.00 0.00 34 1017.2
20260831195657 98 160 5.0 7.0 0.00 0.00 0.00 35 1017.2
20260831195153 98 105 4.0 7.0 0.00 0.00 0.00 36 1017.4
20260831194648 100 77 7.0 10.0 0.00 0.00 0.00 34 1017.5
20260831194143 100 291 2.0 7.0 0.00 0.00 0.00 35 1017.5
20260831193637 99 153 3.0 11.0 0.00 0.00 0.00 36 1017.5
20260831193133 99 213 4.0 8.0 0.00 0.00 0.00 36 1017.5
20260831192627 99 200 5.0 8.0 0.00 0.00 0.00 36 1017.6
20260831192123 99 141 3.0 9.0 0.00 0.00 0.00 37 1017.6
20260831191619 97 179 2.0 6.0 0.00 0.00 0.00 39 1017.8
20260831191115 96 194 2.0 10.0 0.00 0.00 0.00 39 1017.8
20260831190604 96 174 3.0 4.0 0.00 0.00 0.00 40 1017.9
20260831185558 98 149 3.0 11.0 0.00 0.00 0.00 35 1018.1
20260831185054 98 199 6.0 9.0 0.00 0.00 0.00 38 1017.9
20260831184553 98 212 4.0 13.0 0.00 0.00 0.00 38 1018.5
20260831184049 98 187 2.0 4.0 0.00 0.00 0.00 39 1018.1
20260831183548 98 178 3.0 8.0 0.00 0.00 0.00 40 1018.4
20260831183043 97 94 1.0 7.0 0.00 0.00 0.00 41 1018.5
20260831182542 98 173 3.0 4.0 0.00 0.00 0.00 39 1018.6
20260831182038 98 56 4.0 6.0 0.00 0.00 0.00 39 1018.4
20260831181538 97 221 4.0 7.0 0.00 0.00 0.00 41 1018.7
20260831181038 96 198 4.0 7.0 0.00 0.00 0.00 41 1018.7
20260831180533 96 229 8.0 10.0 0.00 0.00 0.00 42 1018.8
20260831180028 96 304 1.0 3.0 0.00 0.00 0.00 42 1018.8
20260831175523 96 192 4.0 9.0 0.00 0.00 0.00 42 1019.0
20260831175021 96 245 5.0 7.0 0.00 0.00 0.00 42 1018.9
20260831174520 97 272 2.0 8.0 0.00 0.00 0.00 42 1019.0
20260831174020 96 176 7.0 9.0 0.00 0.00 0.00 42 1019.1
20260831173519 96 89 1.0 3.0 0.00 0.00 0.00 42 1019.1
20260831173015 96 328 0.0 6.0 0.00 0.00 0.00 44 1019.3
20260831172510 96 39 2.0 8.0 0.00 0.00 0.00 43 1019.4
20260831172005 96 181 1.0 6.0 0.00 0.00 0.00 43 1019.4
20260831171500 96 162 10.0 13.0 0.00 0.00 0.00 43 1019.5
20260831170957 95 90 2.0 6.0 0.00 0.00 0.00 44 1019.4
20260831170453 94 256 4.0 7.0 0.00 0.00 0.00 45 1019.5
20260831165950 94 221 1.0 4.0 0.00 0.00 0.00 46 1019.7
20260831165445 94 209 5.0 13.0 0.00 0.00 0.00 47 1019.7
20260831164942 94 198 6.0 11.0 0.00 0.00 0.00 46 1019.7
20260831164438 95 171 3.0 7.0 0.00 0.00 0.00 45 1019.7
20260831163938 94 179 2.0 4.0 0.00 0.00 0.00 47 1019.8
20260831163434 93 186 1.0 2.0 0.00 0.00 0.00 47 1019.5
20260831162932 93 85 2.0 6.0 0.00 0.00 0.00 48 1019.9
20260831162428 94 193 1.0 7.0 0.00 0.00 0.00 49 1019.8
20260831161926 94 263 2.0 4.0 0.00 0.00 0.00 48 1019.7
20260831161423 93 188 4.0 4.0 0.00 0.00 0.00 47 1019.6
20260831160918 92 215 2.0 4.0 0.00 0.00 0.00 49 1019.7
20260831160413 91 194 3.0 7.0 0.00 0.00 0.00 52 1019.7
20260831155908 92 194 5.0 8.0 0.00 0.00 0.00 53 1019.7
20260831155408 92 142 1.0 6.0 0.00 0.00 0.00 54 1019.7
20260831154908 91 231 3.0 4.0 0.00 0.00 0.00 55 1019.8
20260831154405 89 184 2.0 3.0 0.00 0.00 0.00 58 1019.8
20260831153903 90 211 2.0 8.0 0.00 0.00 0.00 56 1019.6
20260831153359 90 191 2.0 3.0 0.00 0.00 0.00 56 1019.7
20260831152855 89 250 0.0 1.0 0.00 0.00 0.00 60 1019.5
20260831152351 89 185 2.0 3.0 0.00 0.00 0.00 61 1019.6
20260831151851 90 218 2.0 3.0 0.00 0.00 0.00 60 1019.4
20260831151350 89 243 3.0 6.0 0.00 0.00 0.00 61 1019.5
20260831150845 88 195 1.0 1.0 0.00 0.00 0.00 63 1019.5
20260831150341 88 215 2.0 2.0 0.00 0.00 0.00 64 1019.7
20260831145840 87 262 1.0 2.0 0.00 0.00 0.00 66 1019.6
20260831145337 87 213 5.0 7.0 0.00 0.00 0.00 67 1019.4
20260831144832 86 192 5.0 7.0 0.00 0.00 0.00 68 1019.5
20260831144328 87 215 6.0 9.0 0.00 0.00 0.00 67 1019.6
20260831143828 86 234 1.0 1.0 0.00 0.00 0.00 70 1019.4
20260831143324 85 231 4.0 6.0 0.00 0.00 0.00 72 1019.4
20260831142819 85 220 4.0 4.0 0.00 0.00 0.00 72 1019.4
20260831142314 84 163 1.0 4.0 0.00 0.00 0.00 73 1019.5
20260831141814 84 157 2.0 4.0 0.00 0.00 0.00 75 1019.6
20260831141309 83 172 2.0 3.0 0.00 0.00 0.00 77 1019.3
20260831140804 82 219 3.0 3.0 0.00 0.00 0.00 78 1019.2
20260831140258 82 212 5.0 7.0 0.00 0.00 0.00 79 1019.2
20260831135755 81 213 2.0 3.0 0.00 0.00 0.00 80 1019.3
20260831135252 81 131 2.0 4.0 0.00 0.00 0.00 81 1019.1
20260831134747 80 207 4.0 4.0 0.00 0.00 0.00 82 1019.2
20260831134244 80 195 4.0 6.0 0.00 0.00 0.00 81 1019.2
20260831133742 80 201 4.0 4.0 0.00 0.00 0.00 82 1019.2
20260831133242 80 193 1.0 2.0 0.00 0.00 0.00 83 1019.1
20260831132737 79 191 1.0 2.0 0.00 0.00 0.00 84 1019.0
20260831132232 78 215 3.0 3.0 0.00 0.00 0.00 85 1018.9
20260831131732 78 236 1.0 2.0 0.00 0.00 0.00 85 1019.0
20260831131229 78 193 4.0 4.0 0.00 0.00 0.00 85 1018.8
20260831130724 78 186 0.0 3.0 0.00 0.00 0.00 86 1019.0
20260831130219 77 210 1.0 2.0 0.00 0.00 0.00 87 1018.8
20260831125718 77 232 0.0 3.0 0.00 0.00 0.00 87 1018.9
20260831125215 77 174 1.0 2.0 0.00 0.00 0.00 87 1018.8
20260831124714 76 218 0.0 1.0 0.00 0.00 0.00 88 1018.7
20260831124211 76 208 1.0 1.0 0.00 0.00 0.00 89 1018.7
20260831123710 75 233 1.0 2.0 0.00 0.00 0.00 89 1018.6
20260831123209 75 208 1.0 1.0 0.00 0.00 0.00 90 1018.6
20260831122709 75 226 1.0 1.0 0.00 0.00 0.00 90 1018.5
20260831122205 75 218 1.0 1.0 0.00 0.00 0.00 89 1018.5
20260831121704 75 145 1.0 2.0 0.00 0.00 0.00 89 1018.4
20260831121201 75 184 0.0 0.0 0.00 0.00 0.00 89 1018.4
20260831120656 75 219 0.0 1.0 0.00 0.00 0.00 89 1018.0
20260831120151 76 235 1.0 3.0 0.00 0.00 0.00 88 1018.0
20260831115647 76 216 1.0 3.0 0.00 0.00 0.00 88 1018.2
20260831115142 76 170 1.0 4.0 0.00 0.00 0.00 88 1018.1
20260831114641 76 210 4.0 4.0 0.00 0.00 0.00 88 1017.9
20260831114136 76 192 2.0 3.0 0.00 0.00 0.00 87 1017.9
20260831113636 76 209 4.0 4.0 0.00 0.00 0.00 87 1017.9
20260831113131 76 204 1.0 7.0 0.00 0.00 0.00 87 1017.8
20260831112630 76 211 1.0 4.0 0.00 0.00 0.00 87 1017.8
20260831112125 76 179 2.0 4.0 0.00 0.00 0.00 86 1017.7
20260831111621 76 188 4.0 6.0 0.00 0.00 0.00 86 1017.9
20260831111117 76 172 2.0 3.0 0.00 0.00 0.00 86 1017.8
20260831110613 76 178 3.0 3.0 0.00 0.00 0.00 86 1017.7
20260831110108 76 180 0.0 2.0 0.00 0.00 0.00 85 1017.5
20260831105606 76 175 2.0 2.0 0.00 0.00 0.00 85 1017.6
20260831105101 76 199 1.0 3.0 0.00 0.00 0.00 85 1017.7
20260831104557 76 200 1.0 3.0 0.00 0.00 0.00 85 1017.7
20260831104054 76 198 1.0 2.0 0.00 0.00 0.00 84 1017.8
20260831103548 76 188 2.0 3.0 0.00 0.00 0.00 84 1017.7
20260831103045 76 166 3.0 3.0 0.00 0.00 0.00 84 1017.8
20260831102544 76 211 1.0 2.0 0.00 0.00 0.00 83 1017.6
20260831102039 76 162 1.0 4.0 0.00 0.00 0.00 83 1017.6
20260831101534 77 202 1.0 2.0 0.00 0.00 0.00 83 1017.5
20260831101030 77 226 2.0 3.0 0.00 0.00 0.00 82 1017.8
20260831100526 77 182 1.0 3.0 0.00 0.00 0.00 82 1017.7
20260831100022 77 176 2.0 4.0 0.00 0.00 0.00 81 1017.6
20260831095520 77 190 1.0 3.0 0.00 0.00 0.00 81 1017.7
20260831095015 77 218 2.0 6.0 0.00 0.00 0.00 81 1017.5
20260831094511 77 180 2.0 3.0 0.00 0.00 0.00 80 1017.5
20260831094007 77 223 3.0 3.0 0.00 0.00 0.00 80 1017.5
20260831093507 77 231 2.0 4.0 0.00 0.00 0.00 79 1017.5
20260831093003 77 197 2.0 4.0 0.00 0.00 0.00 79 1017.5
20260831092459 77 167 2.0 4.0 0.00 0.00 0.00 79 1017.4
20260831091954 78 219 1.0 2.0 0.00 0.00 0.00 78 1017.4
20260831091449 78 183 1.0 3.0 0.00 0.00 0.00 78 1017.4
20260831090944 78 176 2.0 4.0 0.00 0.00 0.00 78 1017.5
20260831090440 78 201 3.0 4.0 0.00 0.00 0.00 77 1017.4
20260831085936 78 208 2.0 4.0 0.00 0.00 0.00 77 1017.4
20260831085431 78 194 1.0 3.0 0.00 0.00 0.00 77 1017.4
20260831084930 78 222 3.0 3.0 0.00 0.00 0.00 76 1017.3
20260831084427 78 212 1.0 3.0 0.00 0.00 0.00 76 1017.5
20260831083923 78 179 4.0 4.0 0.00 0.00 0.00 75 1017.4
20260831083418 78 174 2.0 3.0 0.00 0.00 0.00 75 1017.4
20260831082917 78 184 2.0 3.0 0.00 0.00 0.00 75 1017.4
20260831082412 79 200 2.0 3.0 0.00 0.00 0.00 74 1017.2
20260831081907 79 156 3.0 3.0 0.00 0.00 0.00 74 1017.2
20260831081403 79 215 3.0 4.0 0.00 0.00 0.00 73 1017.3
20260831080858 79 211 2.0 4.0 0.00 0.00 0.00 73 1017.3
20260831080353 79 228 1.0 3.0 0.00 0.00 0.00 72 1017.2
20260831075849 79 202 2.0 2.0 0.00 0.00 0.00 72 1017.3
20260831075350 79 221 2.0 4.0 0.00 0.00 0.00 71 1017.3